loading
|

ONEWEB-0019, 45449

Orbit data source: Space-Track

ONEWEB-0019, 45449 is a payload satellite owned by One Web (UK) in LEO that was launched on Sat, 21 Mar 2020 UTC via a SOYUZ-2-1B launch vehicle from the Tyuratam Missile And Space Complex (TTMTR). Payloads include a variety of satellites, spacecraft, and rockets equipped with specific instruments for various scientific and technological missions. These include communications satellites like Starlink; space stations such as the ISS; scientific satellites like the Hubble; Earth observation satellites from companies like Planet Labs, Umbra, and HawkEye 360; GPS; miniature CubeSats for education and research; and military/defense satellites.

Loading next visibility...
Loading greatness...
ONEWEB-0019 details
Identifier
45449, 2020-020AB
Orbit
LEO
Last TLE update9 hours ago
Origin
Flag of UKOne Web (UK)
ManufacturerOne Web
Mission statusOperational
MissionCommercial Communications
Bus & MotorARROW, Unknown motor
Mass148 kg wet, ~140 kg dry
Launch date (UTC)
2020-03-21 (4 years ago)
Launch vehicle
SOYUZ-2-1B
Launch site
Tyuratam Missile And Space Complex (TTMTR)
Object type
Payload
Rocket body
Debris
Radar Cross SectionLarge (>1 m²)

Expand to show TLE details & history

TLE from 9 hours ago
0 ONEWEB-0019
1 45449U 20020AB  24258.94217980 -.00000089  00000-0 -28599-3 0  9996
2 45449  87.8981 148.5749 0001916  75.4794 284.6546 13.11416653218625
Epoch: 2024-09-14T22:36Z
Definitive object data (Epoch: 2024-09-14T22:36:44.334Z)
Latitude-0.00008°
Longitude174.99751°
Altitude1,220.205 km
Speed7.244 km/s
True Right ascension09h 54m 17s
True Declination0° 00' 00"
Sunlit
Object was in daylight at TLE epoch
Predictive object data (real-time)
Latitude-26.97878°
Longitude173.85798°
Altitude1,228.021 km
Speed7.239 km/s
Apparent Right ascension10h 50m 51s
Apparent Declination-34° 03' 06"
Sunlit
Object is in daylight
Predictive observer data (real-time)
Local Sidereal Time00:16:27
Azimuth77.77° E
Elevation-71.982°
Doppler factor1
Orbital elements
Apogee1,216.257 km
Perigee1,213.347 km
Semi-major axis7,592.939 km
Eccentricity0.0001916
Inclination87.8981°
RAAN148.5749°
Arg. of periapsis75.4794°
True anomaly284.63336°
Mean anomaly284.6546°
Eccentric anomaly284.64398°
Mean motion3.28041 °/min
BSTAR-0.00028599
Period109.74 mins
No data available

ONEWEB-0019 Visibility forecast

Observer location: 39.9160978°, -105.1181434

ONEWEB-0019 is not visible in the next 10 days
Span
Click to sort rows by Start time (UTC) header in descending order
Start Az.
Max El. time (UTC)
Max El. Az.
Max El.
End time (UTC)
End Az.